Find Starlink 33936

NORAD ID: 64005 Int'l Des: 2025-101 Owner: SPXS Country: US Constellation: starlink operational
LEOCIRCULAR

現在のビュー

3D地球を読み込み中...

About Starlink 33936

Starlink 33936 (NORAD 64005) is a starlink constellation satellite (v2 mini) launched May 14, 2025 by SPXS of US. It operates in LEO, CIRCULAR orbit with a mass of 575.00 kg.

Starlink 33936について

説明を読み込み中...

次回通過

Passes for default location (London). Set your location on the main map for personalized predictions.

高度履歴

Loading altitude history...

軌道要素

1 64005U 25101M 26194.80052338 -.00004853 00000-0 -16701-3 0 9995
2 64005 43.0026 5.6379 0001567 281.1152 78.9523 15.27562406 66342
Epoch: Jul 13, 2026 • Age: 20 hours

現在のステータス

高度 492.3 km
遠地点 / 近地点 N/A
速度 7.62 km/s
衛星直下点 -35.58°S, 148.29°E
打ち上げ日 May 14, 2025
運用期間 1.1 years
タイプ internet

技術仕様

分類 Payload
質量 575.00 kg
乾燥質量 530.00 kg
総質量 575.00 kg
長さ 0.30 m
直径 4.10 m
スパン 29.00 m
形状 Box + pan
製造者 SPXS
バスタイプ Starlink V2MO
フェーズステータス In Orbit
所有者/国 SPXS/US

Most Searched